Weather History for KBBW - May, 2014

Change the Weather History Date:

Friday, May 30, 2014

  Actual Average Record
Temperature  
Mean Temperature 74 °F 64 °F  
Max Temperature 89 °F 75 °F 93 °F (1939)
Min Temperature 58 °F 52 °F 31 °F (1992)
Degree Days  
Heating Degree Days 0 4  
Month to date heating degree days 232 221  
Cooling Degree Days 9 2  
Month to date cooling degree days 70 30  
Year to date cooling degree days 70 31  
Growing Degree Days 24 (Base 50)    
Moisture  
Dew Point 57 °F    
Average Humidity 56    
Maximum Humidity 84    
Minimum Humidity 27    
Precipitation  
Precipitation 0.00 in 0.15 in 1.40 in (1991)
Sea Level Pressure  
Sea Level Pressure 29.96 in    
Wind  
Wind Speed 8 mph (SE)    
Max Wind Speed 22 mph    
Max Gust Speed 30 mph    
Visibility 10 miles    
Events      
T = Trace of Precipitation, MM = Missing Value Source: NWS Daily Summary

Daily Weather History Graph

Daily Weather History Graph

Search for Another Location

Airport or City:

Trip Planner

Search our weather history database for the weather conditions in past years. The results will help you decide how hot, cold, wet, or windy it might be!

Date:

Astronomy

May. 30, 2014 Rise Set
Actual Time 6:08 AM CDT 9:04 PM CDT
Civil Twilight 5:35 AM CDT 9:37 PM CDT
Nautical Twilight 4:53 AM CDT 10:19 PM CDT
Astronomical Twilight 4:04 AM CDT 11:08 PM CDT
Moon 7:54 AM CDT (5/30) 10:41 PM CDT (5/30)
Length of Visible Light 16h 02m
Length of Day
14h 56m
Waxing Crescent, 4% of the Moon is Illuminated
May 30
Waxing Crescent
Jun 5
First Quarter
Jun 12
Full
Jun 19
Last Quarter
Jun 27
New

Hourly Weather History & Observations

Time (CDT) Temp. Heat Index Dew Point Humidity Pressure Visibility Wind Dir Wind Speed Gust Speed Precip Events Conditions
12:53 AM 68.0 °F - 55.9 °F 65% 29.96 in 10.0 mi SE 5.8 mph - N/A   Clear
1:53 AM 66.0 °F - 55.9 °F 70% 29.95 in 10.0 mi SE 6.9 mph - N/A   Clear
2:53 AM 64.0 °F - 55.9 °F 75% 29.95 in 10.0 mi SE 6.9 mph - N/A   Clear
3:53 AM 63.0 °F - 55.9 °F 78% 29.95 in 10.0 mi SE 3.5 mph - N/A   Clear
4:53 AM 60.1 °F - 55.0 °F 83% 29.96 in 10.0 mi SE 5.8 mph - N/A   Clear
5:53 AM 59.0 °F - 54.0 °F 83% 29.97 in 10.0 mi Calm Calm - N/A   Clear
6:53 AM 60.1 °F - 55.0 °F 83% 29.98 in 7.0 mi Calm Calm - N/A   Clear
7:53 AM 66.9 °F - 59.0 °F 76% 29.99 in 10.0 mi SE 5.8 mph - N/A   Clear
8:53 AM 73.0 °F - 61.0 °F 66% 29.98 in 10.0 mi SE 9.2 mph - N/A   Clear
9:53 AM 79.0 °F - 60.1 °F 52% 29.99 in 10.0 mi SSE 10.4 mph - N/A   Clear
10:53 AM 82.9 °F 82.8 °F 59.0 °F 44% 29.98 in 10.0 mi South 11.5 mph - N/A   Clear
11:53 AM 84.9 °F 84.4 °F 59.0 °F 41% 29.98 in 10.0 mi SE 9.2 mph 18.4 mph N/A   Clear
12:53 PM 86.0 °F 85.4 °F 59.0 °F 40% 30.04 in 10.0 mi SE 11.5 mph 24.2 mph N/A   Partly Cloudy
1:53 PM 88.0 °F 86.7 °F 57.0 °F 35% 29.96 in 10.0 mi SSE 12.7 mph 20.7 mph N/A   Scattered Clouds
2:53 PM 88.0 °F 86.5 °F 55.9 °F 34% 29.95 in 10.0 mi SE 10.4 mph 23.0 mph N/A   Partly Cloudy
3:53 PM 87.8 °F 86.1 °F 55.4 °F 33% 29.99 in 10.0 mi SSE 12.7 mph 23.0 mph N/A   Partly Cloudy
5:53 PM 89.1 °F - 52.0 °F 28% 29.90 in 10.0 mi SSE 11.5 mph - N/A   Scattered Clouds
6:53 PM 86.0 °F 84.2 °F 54.0 °F 33% 29.90 in 10.0 mi SSE 15.0 mph 21.9 mph N/A   Scattered Clouds
7:53 PM 84.0 °F 83.0 °F 55.9 °F 38% 29.90 in 10.0 mi SSE 8.1 mph - N/A   Partly Cloudy
8:53 PM 79.0 °F - 57.9 °F 48% 29.92 in 10.0 mi SSE 8.1 mph - N/A   Clear
9:53 PM 75.0 °F - 57.9 °F 55% 29.94 in 10.0 mi SSE 5.8 mph - N/A   Clear
10:53 PM 73.0 °F - 59.0 °F 61% 29.96 in 10.0 mi SSE 5.8 mph - N/A   Clear
11:53 PM 71.1 °F - 59.0 °F 66% 29.97 in 10.0 mi SE 6.9 mph - N/A   Clear